Regional Weather Roundup
Issued by NWS Pendleton, OR

Home | Current Version | Previous Version | Text Only | Print | Product List | Glossary On
Versions: 1 2 3 4 5 6 7 8 9 10 11 12 13 14 15 16 17 18 19 20 21 22 23 24 25 26 27 28 29 30 31 32 33 34 35 36 37 38 39 40 41 42 43 44 45 46 47 48 49 50
000
ASUS46 KPDT 220025
RWRPDT
PENDLETON REGIONAL WEATHER ROUNDUP
NATIONAL WEATHER SERVICE PENDLETON OREGON
500 PM PDT TUE OCT 21 2014

NOTE: FAIR INDICATES FEW OR NO CLOUDS BELOW 12,000 FEET WITH NO
SIGNIFICANT WEATHER AND/OR OBSTRUCTIONS TO VISIBILITY.

# INDICATES UNOFFICIAL STATION AND DATA

WAZ520-220110-
EAST SLOPES OF WASHINGTON CASCADES

CITY            SKY/WX      TMP DP  RH  WIND    PRES   REMARKS
#BUMPING DAM    N/A         46  N/A N/A S2      N/A
#CLE ELUM HS    N/A         51  47  86  CALM    29.88F
#CLE ELUM 2NW   N/A         51  47  86  CALM    N/A
#CLE ELUM LAKE  N/A         51  45  80  CALM    29.87F
#CLIFFDEL 2NW   N/A         50  39  66  W6      N/A
#GLENWOOD       N/A         53  46  77  W2      29.96R
#MANASTASH CYN  N/A         52  43  71  CALM    29.90R
#NELSON         N/A         51  50  96  CALM    29.92F
#NELSON 3SW     N/A         48  46  93  CALM    30.11
#NILE           N/A         53  42  66  W1      29.18R
#RONALD 2NW     N/A         52  46  80  S1      29.79F
#SNOWDEN        N/A         50  46  86  CALM    N/A
#TEANAWAY 4NE   N/A         55  48  77  CALM    N/A
#TROUT LAKE HS  N/A         53  47  80  CALM    N/A
#TROUT LAKE 1NE N/A         52  46  80  CALM    29.97S
$$

WAZ521-220110-
SIMCOE HIGHLANDS

CITY            SKY/WX      TMP DP  RH  WIND    PRES   REMARKS
#BICKLETON HS   N/A         52  33  48  SW8     30.06S
#CENTERVILLE 4W N/A         56  45  66  NW8     29.72S
#CENTERVILLE 1SWN/A         56  43  62  W5      29.94R
#GOLDENDALE     N/A         57  43  59  W7      N/A
#GOLDENDALE 1NE N/A         57  39  51  SW1     N/A
#GOLDENDALE 1S  N/A         56  46  69  CALM    29.94S
#GOLDENDALE 5WNWN/A         56  45  66  W5      29.95S
#GOODNOE HILLS  N/A         61  45  56  W12     29.89S
#LYLE 6NE       N/A         57  48  72  CALM    29.92F
$$

WAZ026-220110-
KITTITAS VALLEY

CITY            SKY/WX      TMP DP  RH  WIND    PRES   REMARKS
ELLENSBURG AP   MOCLDY      62  43  50  NW5     29.90
6HR MIN TEMP:   49; 6HR MAX TEMP:   65; 6HR PCP:  TRACE;

#ELLENSBURG CWU N/A         58  44  60  NW3     29.86F
#ELLENSBURG 3NE N/A         59  45  60  CALM    29.91S
#ELLENSBURG     N/A         61  48  62  W1      N/A
#KITTITAS 3S    N/A         54  48  80  CALM    29.89S
#THORP 6N       N/A         53  44  71  W2      29.93S
$$

WAZ027-220110-
YAKIMA VALLEY

CITY            SKY/WX      TMP DP  RH  WIND    PRES   REMARKS
YAKIMA AIRPORT  CLEAR       62  42  48  SW15G24 29.91
6HR MIN TEMP:   52; 6HR MAX TEMP:   67; 6HR PCP:  TRACE;

#COWICHE 1N     N/A         57  44  62  NW2     30.06S
#DONALD 2NE     N/A         60  40  47  E1      30.25R
#GRANDVIEW      N/A         63  40  43  SW3     29.95S
#MABTON         N/A         64  44  48  S7      29.93F
#MOXEE 2E       N/A         59  32  36  SW10    29.87R
#NACHES 2SW     N/A         59  44  57  W2      29.91S
#OUTLOOK DOT    N/A         N/A N/A N/A SW12    N/A
#SELAH 8E       N/A         57  41  55  S13     N/A
#TERRACE HTS    N/A         62  44  52  W3      29.88
#TOPPENISH      N/A         62  43  50  W7      29.85S
#WAPATO 4NE     N/A         61  40  46  E6      30.25R
#WEST VALLEY    N/A         60  43  53  SW7     29.90R
#W YAKIMA       N/A         59  44  57  S1      29.91S
#WHITE SWAN 5E  N/A         61  44  53  SW15G25 29.92S
#WILEY CITY 3W  N/A         56  42  59  SW8     29.96S
$$

WAZ028-220110-
LOWER COLUMBIA BASIN...WASHINGTON

CITY            SKY/WX      TMP DP  RH  WIND    PRES   REMARKS
PASCO           MOCLEAR     65  44  46  SW13    29.96
6HR MIN TEMP:   60; 6HR MAX TEMP:   67;

PROSSER AWOS    N/A         63  45  52  SW7     29.98
#BASIN CITY 5SW N/A         63  44  50  W1      29.93S
#BENTON CITY    N/A         62  43  50  SW7     29.85S
#CONNELL 5N     N/A         61  47  60  SW7     29.93
#CONNELL 5NW    N/A         61  49  65  S5      29.89S
#ELTOPIA        N/A         62  47  58  SW5     29.91R
#ELTOPIA 6NW    N/A         60  46  60  SW8     28.91S
#KENNEWICK 3S   N/A         63  45  52  W2      29.95
#PASCO-BROADMOORN/A         67  44  43  S3      29.82S
#PATERSON       N/A         66  46  48  W5      29.93S
#PROSSER        N/A         64  41  43  SW8     29.94
#SAGEMOOR 2W    N/A         61  47  60  S7      29.79S
#TOUCHET 2S     N/A         64  47  54  W5      29.94
#WEST PASCO     N/A         65  46  50  S5      29.94S
$$

WAZ029-220110-
FOOTHILLS OF THE BLUES...WASHINGTON

CITY            SKY/WX      TMP DP  RH  WIND    PRES   REMARKS
WALLA WALLA AP  CLEAR       63  42  46  SW12    29.98
6HR MIN TEMP:   57; 6HR MAX TEMP:   64;

#LOWDEN 2SE     N/A         65  48  54  W1      29.93S
#PLEASANT VIEW 1N/A         58  43  57  S10     29.98S
#PRESCOTT       N/A         62  44  52  W1      29.95S
#SUDBURY        N/A         64  N/A N/A CALM    N/A
#WHITMAN COLLEGEN/A         63  44  50  S6      30.01S
#WAITSBURG 8N   N/A         57  30  35  S10     29.91S
#WALLA WALLA 5E N/A         62  42  48  CALM    N/A
#WHITMAN MISSIONN/A         64  46  52  W2      29.97S
$$

WAZ030-220110-
BLUE MOUNTAINS...WASHINGTON

CITY            SKY/WX      TMP DP  RH  WIND    PRES   REMARKS
$$

ORZ009-041-WAZ024-220110-
COLUMBIA RIVER GORGE

CITY            SKY/WX      TMP DP  RH  WIND    PRES   REMARKS
HOOD RIVER AP   CLOUDY      57  48  72  NW8     29.96
THE DALLES AP   PTCLDY      62  46  56  NW8     29.95
6HR MIN TEMP:   57; 6HR MAX TEMP:   66;

#ARLINGTON AIRPON/A         62  45  54  W5      29.98S
#ARLINGTON HS   N/A         65  44  46  NW1     29.85S
#CELILO DOT     N/A         63  41  44  SW3     N/A
#LYLE           N/A         63  51  65  W1      29.96S
#MARYHILL 2W    N/A         63  47  56  SW1     N/A
#MOSIER 1S      N/A         60  41  49  CALM    N/A
#MURDOCK        N/A         63  52  67  W8      29.96S

$$

ORZ510-220110-
NORTH CENTRAL OREGON

CITY            SKY/WX      TMP DP  RH  WIND    PRES   REMARKS
#COW CYN RST AREN/A         55  36  49  SW9     N/A
#DUFUR 9E       N/A         56  41  57  W14     30.01
#GRASS VALLEY   N/A         55  40  57  CALM    N/A
#GRASS VALLEY 1SN/A         57  41  55  W9      30.00S
#KENT DOT       N/A         57  31  37  SW14    N/A
#MAUPIN SCHOOL  N/A         62  42  48  NW5     28.84S
#MORO SCHOOL    N/A         60  46  60  SW5     29.98S
#SHANIKO 5WSW   N/A         52  28  39  SW15    N/A
#TYGH VALLEY 2NEN/A         62  44  52  W7      29.95S
#WAPANITIA AIRPON/A         60  40  47  W6      29.97F
#WASCO DOT      N/A         62  40  44  NW2     N/A
#WASCO 5NE      N/A         60  44  55  N3      29.96
$$

ORZ511-220110-
CENTRAL OREGON

CITY            SKY/WX      TMP DP  RH  WIND    PRES   REMARKS
BEND AIRPORT    CLEAR       54  36  50  SW13    30.02S
MADRAS AIRPORT  PTCLDY      59  37  44  W8      30.01
PRINEVILLE AP   CLEAR       55  36  49  SW12    30.01R
#BEND 6E        N/A         53  35  50  CALM    29.96R
#BEND 1SW       N/A         50  38  63  W1      N/A
#BEND-KIM LN    N/A         53  40  61  SW5     29.98S
#CROOKED RVR RANN/A         56  40  55  SW13    29.99S
#CULVER         N/A         57  40  53  W2      29.96S
#LAKE BILLY CHINN/A         56  14  19  W5      30.05R
#POWELL BUTTE 3EN/A         58  37  45  SW7     N/A
#POWELL BUTTE   N/A         54  37  52  SW3     29.64S
#PRINEVILLE 3N  N/A         56  41  57  CALM    29.96S
#WARM SPRINGS   N/A         62  40  44  SE6     29.95F


ORZ509-220110-
EAST SLOPES OF OREGON CASCADES

CITY            SKY/WX      TMP DP  RH  WIND    PRES   REMARKS
#BLUE BOX PASS  N/A         44  -6  12  CALM    N/A
#CAMP SHERMAN   N/A         52  39  61  CALM    30.01S
#LA PINE DOT    N/A         50  32  50  SW6     N/A
#LA PINE 4NW    N/A         49  37  63  CALM    30.07S
#LAVA BUTTE DOT N/A         47  33  58  CALM    N/A
#MT BACHELOR-MIDN/A         31  31  100 SE20G30 N/A    WCI 19
#SISTERS AIRPOR N/A         54  45  71  N5      29.91S
#SISTERS ODOT   N/A         54  N/A N/A CALM    N/A
#SISTERS 1NW    N/A         54  36  50  N10     N/A
#SISTERS 3N     N/A         51  36  56  CALM    30.01S
#SUNRIVER       N/A         50  39  66  SW1     29.91S
#SUNRIVER AP    N/A         50  38  63  SW1     29.99S
#TUMALO 3W      N/A         54  37  52  S7      29.88
#WANOGA BUTTE D N/A         38  36  92  W8      N/A

$$

ORZ044-220110-
LOWER COLUMBIA BASIN...OREGON

CITY            SKY/WX      TMP DP  RH  WIND    PRES   REMARKS
HERMISTON       CLEAR       64  40  41  W8      29.95
6HR MIN TEMP:   59; 6HR MAX TEMP:   67;

#BOARDMAN SCHOOLN/A         65  45  48  W3      29.94S
#BOARDMAN 3W    N/A         65  44  46  SW3     29.65F
#BOARDMAN 8SW   N/A         65  48  54  W3      29.94F
#ECHO 8SW       N/A         63  42  46  W1      29.93S
#IONE SCHOOL    N/A         64  40  41  SW7     29.95S
#IRRIGON 4NW    N/A         68  45  44  W5      N/A
#UMATILLA SCHOOLN/A         64  52  65  CALM    30.00R
#UMATILLA       N/A         66  46  48  CALM    29.93S
$$

ORZ507-220110-
NORTHERN FOOTHILLS OF THE BLUES

CITY            SKY/WX      TMP DP  RH  WIND    PRES   REMARKS
PENDLETON AIRPT PTCLDY      62  40  44  W9      29.96
6HR MIN TEMP:   57; 6HR MAX TEMP:   63;

#ADAMS 3WNW     N/A         60  43  53  W1      29.97R
#ATHENA         N/A         60  42  51  SW3     29.98
#CAYUSE         N/A         61  43  51  NW2     29.96S
#HELIX SCHOOL   N/A         62  43  50  W5      29.96S
#HELIX 3N       N/A         58  42  55  W7      29.95S
#HELIX 6SW      N/A         60  43  53  W5      29.96S
#HOLDMAN 5SE    N/A         61  44  53  W3      29.97F
#HOLDMAN 6E     N/A         60  43  53  NE6     29.78S
#M-F FERNDALE   N/A         66  45  47  CALM    29.97S
#M-FREEWATER 5SEN/A         61  44  53  CALM    29.98S
#PENDLETON DNTN N/A         63  37  38  CALM    28.76S
#PDT AQUATIC CTRN/A         66  43  43  W5      29.94F
#PDT SUNRIDGE   N/A         63  42  46  CALM    29.98S
#PENDLETON 7NW  N/A         60  45  58  W3      27.42S
#PILOT ROCK     N/A         59  38  45  SE6     30.00R
#TUTUILLA       N/A         60  41  49  W1      29.97S
#UMAPINE 2E     N/A         63  47  56  N1      29.94S
#WESTON SCHOOL  N/A         59  38  45  W5      29.93S

$$

ORZ508-220110-
SOUTHERN FOOTHILLS OF THE BLUES

CITY            SKY/WX      TMP DP  RH  WIND    PRES   REMARKS
LEXINGTON       PTCLDY      63  39  41  SW8     29.98F
#AJAX           N/A         59  35  40  SW7     29.91S
#CONDON SCHOOL  N/A         55  40  57  CALM    29.94F
#CONDON 5W      N/A         53  38  57  S5      29.96S
#FOSSIL SCHOOL  N/A         57  38  49  CALM    29.96S
#HEPPNER EOC    N/A         60  38  44  SW5     29.91F
#HEPPNER 4NE    N/A         56  38  51  W7      29.97F
#LEXINGTON 2SE  N/A         63  40  43  W2      29.95S
#MIKKALO        N/A         60  42  51  CALM    29.96S
#OLEX 4N        N/A         61  45  56  W3      29.95S
#RUGGS 5NE      N/A         58  37  45  SW6     30.17S
#RUGGS 2SW      N/A         57  37  47  W5      29.98F

$$

ORZ502-503-220110-
BLUE MOUNTAINS

CITY            SKY/WX      TMP DP  RH  WIND    PRES   REMARKS
MEACHAM         PTCLDY      49  38  66  CALM    30.01
6HR MIN TEMP:   48; 6HR MAX TEMP:   52; 6HR PCP:  0.02;

#BATTLE MTN DOT N/A         49  38  66  S2      N/A
#HARDMAN 10S    N/A         49  37  63  CALM    30.05F
#HEPPNER 15SE   N/A         46  41  83  CALM    29.91F
#LADD CYN SMT   N/A         53  31  43  CALM    N/A
#LADD CREEK ODOTN/A         54  37  52  NW2     N/A
#N POWDER DOT   N/A         54  37  52  N3      N/A
#PIKES PEAK     N/A         50  39  66  SW9     27.99S
#TROY SCHOOL    N/A         59  42  53  CALM    29.80S
#UKIAH          N/A         53  38  57  SE1     30.03S
#WESTON 4E      N/A         54  40  59  S2      29.94S
$$

ORZ505-220110-
JOHN DAY BASIN

CITY            SKY/WX      TMP DP  RH  WIND    PRES   REMARKS
JOHN DAY        CLOUDY      53  35  50  S13     30.03F
#JOHN DAY KJDY  N/A         55  39  55  CALM    30.15R
#DAYVILLE SCHOOLN/A         59  36  42  S5      29.98S
#MT. VERNON 5SE N/A         48  37  65  E2      29.99S
#WINLOCK        N/A         54  37  52  NW5     30.08S
$$

ORZ506-220110-
OCHOCO AND JOHN DAY HIGHLANDS

CITY            SKY/WX      TMP DP  RH  WIND    PRES   REMARKS
#BUCK CREEK DOT N/A         54  40  59  W5      N/A
#HORSE RIDGE DO N/A         52  33  48  S7      N/A
#KEYES SMT DOT  N/A         52  -52  1  NW5     N/A
#PAULINA SCHOOL N/A         N/A N/A N/A SW7     30.02S
#PINE MTN OBS   N/A         40  33  76  S10     N/A
#PRAIRIE CITY   N/A         50  31  48  W1      30.04R
#SENECA         N/A         49  N/A N/A S2      N/A
#SENECA 9NW     N/A         44  39  82  CALM    30.00F
$$

ORZ049-220110-
GRANDE RONDE VALLEY

CITY            SKY/WX      TMP DP  RH  WIND    PRES   REMARKS
LA GRANDE       PTCLDY      55  34  45  N6      30.00S
#COVE           N/A         55  43  64  CALM    29.93R
#COVE SCHOOL    N/A         53  39  59  CALM    29.98S
#COVE 6NW       N/A         54  39  57  N2      30.02
#ELGIN 3N       N/A         56  37  49  S2      29.73S
#ELGIN 1E       N/A         57  39  51  CALM    N/A
#IMBLER SCHOOL  N/A         63  35  35  SW3     29.84S
#ISLAND CITY 4N N/A         57  53  86  CALM    29.93F
#LADD CYN DOT   N/A         56  37  49  N3      N/A
#UNION 1S       N/A         57  41  55  CALM    29.89R
$$

ORZ050-220110-
WALLOWA COUNTY

CITY            SKY/WX      TMP DP  RH  WIND    PRES   REMARKS
#ENTERPRISE HS  N/A         53  37  54  NW2     30.00S
#IMNAHA SCHOOL  N/A         56  39  53  CALM    29.91S
#IMNAHA 10S     N/A         58  39  49  N1      29.99
#JOSEPH 3N      N/A         51  34  52  CALM    30.03S
#JOSEPH 3W      N/A         45  39  79  CALM    29.87S
#LOSTINE        N/A         52  38  59  CALM    29.78R
#MT HOWARD 8000 N/A         32  29  89  SW5     30.05F
#PROMISE 1S     N/A         50  38  63  E1      30.09S
#SHEEP RDG 7000 N/A         35  28  75  CALM    30.04R
#WALLOWA SCHOOL N/A         55  38  53  CALM    30.88S



$$



USA.gov is the U.S. government's official web portal to all federal, state and local government web resources and services.